Regional Weather Roundup
Issued by NWS Wakefield, VA

Home | Current Version | Previous Version | Text Only | Print | Product List | Glossary Off
Versions: 1 2 3 4 5 6 7 8 9 10 11 12 13 14 15 16 17 18 19 20 21 22 23 24 25 26 27 28 29 30 31 32 33 34 35 36 37 38 39 40 41 42 43 44 45 46 47 48 49 50

299
ASUS41 KAKQ 240615
RWRAKQ

REGIONAL WEATHER ROUNDUP
NATIONAL WEATHER SERVICE WAKEFIELD VA
100 AM EST SAT FEB 24 2018

Note: "fair" indicates few or no clouds below 12,000 feet with no
significant weather and/or obstructions to visibility. * = Denotes
station may not report precipitation (e.g., rain,snow,etc.),
thunder or fog.

VAZ042-051-052>054-056-240700-
NORTHERN VIRGINIA

CITY           SKY/WX    TMP DP  RH WIND       PRES   REMARKS
WASH NATIONAL  FOG       48  48 100 S6        30.24F VSB 1/4
DULLES         CLOUDY    47  47 100 S5        30.22F FOG
FORT BELVOIR   CLOUDY    48  46  93 SE3       30.22F FOG
QUANTICO       CLOUDY    50  50 100 CALM      30.24F FOG
FREDERICKSBRG* CLOUDY    51  51 100 CALM      30.23S
STAFFORD*      MOCLDY    50  50 100 CALM      30.26F
WARRENTON      CLOUDY    50  47  87 S3        30.21F
CULPEPER*      CLOUDY    48  46  94 S3        30.23F FOG
MANASSAS*      CLOUDY    49  48  97 S6        30.22F
LEESBURG*      FOG       41  41 100 CALM      30.23S VSB 3/4
WINCHESTER     FOG       41  41 100 CALM      30.23F VSB 1/4
FRONT ROYAL*   FAIR      39  39 100 CALM      30.21S
LURAY*         FAIR      45  45 100 CALM      30.20F
$$

VAZ048-049-060>072-079>083-240700-
CENTRAL AND SOUTH CENTRAL VIRGINIA

CITY           SKY/WX    TMP DP  RH WIND       PRES   REMARKS
RICHMOND       MOCLDY    47  47 100 S7        30.25F FOG
CHESTERFIELD*  FAIR      43  42  97 CALM      30.26F FOG
PETERSBURG*    FOG       41  40  95 CALM      30.27F VSB 1
HANOVER        FAIR      48  47  96 S5        30.25F
TAPPAHANNOCK*  FOG       49  49 100 S6        30.25F VSB 3/4
QUINTON*       FOG       48  48 100 SE3       30.26F VSB 1
CHARLOTTSVILLE FAIR      50  48  93 S6        30.22F
GORDONSVILLE*  CLOUDY    49  49 100 SW6       30.22F
ORANGE*        CLOUDY    48  48 100 CALM      30.23S
LOUISA*        FAIR      50  49  97 S5        30.27F
BUMPASS*       CLOUDY    50  48  95 S9        30.23F
FARMVILLE*     CLOUDY   N/A N/A N/A S6        30.24F FOG
CREWE*         MOCLDY    42  42 100 CALM      30.25F
FORT PICKETT*  MOCLDY    44  44 100 W8        30.26F
CHASE CITY*    MOCLDY    46  46 100 CALM      30.27S
CLARKSVILLE*   FAIR      46  46 100 CALM      30.27S
SOUTH HILL*    FAIR      45  45 100 CALM      30.32S
LAWRENCEVILLE* CLOUDY    45  44  97 CALM      30.26S VSB 3/4
EMPORIA*       CLOUDY    45  45 100 CALM      30.28S FOG
$$

VAZ088>098-240700-
SOUTHEAST VIRGINIA

CITY           SKY/WX    TMP DP  RH WIND       PRES   REMARKS
NORFOLK        FOG       52  52 100 CALM      30.26F VSB 1/4
VIRGINIA BEACH FOG       49  47  93 CALM      30.26F VSB 1/8
NORFOLK NAVAL  FOG       51  50  96 CALM      30.27F VSB 1/4
WEST POINT*    CLOUDY    50  49  97 CALM      30.28F VSB 1/2
SALUDA*        CLOUDY    50  50 100 S3        30.26F VSB 3/4
NEWPORT NEWS   CLOUDY    50  49  96 CALM      30.26F FOG
LANGLEY AFB    NOT AVBL
FORT EUSTIS    CLOUDY    49  49  97 CALM      30.24F FOG
WILLIAMSBURG*  CLOUDY    52  50  93 CALM      30.27F VSB<1/4
HR EXEC AP*    FOG       51  51 100 CALM      30.27F VSB<1/4
FRANKLIN*      CLOUDY    46  46  99 CALM      30.27F FOG
US460-WAKEFLD  FOG       50  50 100 CALM      30.26F VSB 1/2
$$

VAZ020-022-025-037-045-240700-
WEST CENTRAL AND SOUTHWEST VIRGINIA

CITY           SKY/WX    TMP DP  RH WIND       PRES   REMARKS
STAUNTON*      FAIR      47  47  97 CALM      30.24S
WAYNESBORO*    FAIR      46  46 100 N3        30.22F
HOT SPRINGS VA FAIR      58  48  70 SW10      30.28F
LYNCHBURG      FOG       48  48 100 CALM      30.26F VSB 1/4
DANVILLE       FOG       48  48 100 CALM      30.26F VSB 1/4
SOUTH BOSTON*  CLOUDY    45  44  96 CALM      30.27F VSB 1/4
MARTINSVILLE   FAIR      42  42  98 CALM      30.29S FOG
ROANOKE        FAIR      47  45  93 CALM      30.28F
BLACKSBURG     FAIR      50  50  98 CALM      30.29F
DUBLIN*        MOCLDY    54  53  97 CALM      30.27F FOG
MARION*        FAIR      56  53  87 CALM      30.29F
HILLSVILLE*    CLOUDY    57  55  93 S8        30.28F
RICHLANDS*     FAIR      63  51  66 S3        30.26F
WISE*          FAIR      63  54  72 S8        30.26F
ABINGDON*      MOCLDY    62  55  77 CALM      30.25S
$$

MDZ021>025-VAZ099-100-240700-
SOUTHERN MARYLAND AND THE DELMARVA PENINSULA

CITY           SKY/WX    TMP DP  RH WIND       PRES   REMARKS
PATUXENT RIVER CLOUDY    50  50 100 SW5       30.23F FOG
BAY BRIDGE APT FOG       45  45 100 S5        30.24S VSB 1
LEONARDTOWN    CLOUDY    50  48  93 SW7       30.24F
DOVER          CLOUDY    46  46  98 SW8       30.23F FOG
GEORGETOWN     CLOUDY    48  47  96 SW10      30.25F FOG
EASTON         FOG       47  46  95 SW3       30.28F VSB 1
CAMBRIDGE      FOG       46  46 100 VRB3      30.25F VSB 1/2
SALISBURY      CLOUDY    49  49 100 W7        30.25F FOG
OCEAN CITY     CLOUDY    48  48 100 W7        30.26F FOG
WALLOPS ISLAND FOG       50  49  96 SW5       30.26F VSB 3/4
ACCOMACK*      FOG       50  49  99 CALM      30.27F VSB 1/2
$$

NCZ012>017-030>032-240700-
NORTH CENTRAL AND EASTERN NORTH CAROLINA

CITY           SKY/WX    TMP DP  RH WIND       PRES   REMARKS
ROANOKE RAPIDS MOCLDY    46  46 100 CALM      30.26F
RALEIGH        FAIR      57  56  96 SW7       30.27F
ELIZABETH CITY FOG       57  57 100 S7        30.28F VSB 1/4
AHOSKIE*       MOCLDY    54  54 100 S5        30.27F FOG
EDENTON*       DRZL/FOG  62  62 100 S7        30.29F VSB 1/2
CURRITUCK*     FOG       51  50  99 S3        30.28F VSB 1
KILL DEVIL HLS FOG      N/A N/A N/A CALM      30.29F VSB 1/4
MANTEO         FOG       55  55 100 SW6       30.30F VSB<1/4
CAPE HATTERAS  FAIR      55  54  96 SE3       30.31S
TARBORO*       NOT AVBL
GOLDSBORO      FAIR      63  61  95 S5        30.27S
WASHINGTON     FOG       63  62  97 S6        30.29F VSB 3/4
GREENVILLE     CLOUDY    63  63 100 SW9       30.29S
NEW BERN       FOG       57  57 100 CALM      30.31F VSB 1/4
WILMINGTON     FAIR      63  61  93 SW5       30.30S
$$

VAZ048-240700-
ELSEWHERE

CITY           SKY/WX    TMP DP  RH WIND       PRES   REMARKS
HARRISBURG PA  CLOUDY    44  42  93 CALM      30.19F FOG
BALTIMORE      DRZL/FOG  43  43 100 CALM      30.23F VSB 1/4
ANNAPOLIS      FOG       46  46 100 SE3       30.23F VSB 1
ANDREWS AFB    FOG       48  48 100 S7        30.22F VSB 3/4
PHILADELPHIA   CLOUDY    44  43  96 SW10      30.23S
HENDERSON NC     N/A     49  48  98 SW3       30.26S FOG
GREENSBORO     FAIR      50  50 100 CALM      30.26F
ROCKY MOUNT    FAIR      58  58 100 S6        30.27F FOG
$$

VAZ100-240700-
MARINE

STATION/POSITION TIME  TEMP    WIND        PRES    WAVE   SWELL
                       AIR SEA DIR/SP/G            HT/PER HT/PER
                 (UTC) (F)     (DEG/KT/KT) (MB)    (FT/S) (FT/S)
BRANDYWINE LGT   0536   45     230/  6/  7 1024.5F
CAPE MAY NJ      0548   44 44  210/  5/  7 1023.8F
LEWES DE         0548   47 43  260/  8/ 11 1024.2F
15NM E FENWICK I 0550   44 43  210/ 10/ 10 1025.0    4/ 8   3/ 8
OCEAN-CITY-INLET 0548   47 43  250/  6/  7 1025.3F
WACHAPREAGUE VA  0548   48 51  200/  7/  9 1024.9F
THOMAS POINT MD  0600   43 42  180/  9/  9   N/A
GOOSES REEF MD   0600   44 42  200/  6/  8 1026.3    1
COVE POINT MD    0548   44     180/ 10/ 10 1024.6F
SOLOMONS ISLAND  0548   49 43  200/  4/  5 1023.5F
BISHOPS HEAD MD  0548   47 49  190/  5/  8 1024.8F
PINEY POINT MD   0548          240/  5/  6   N/A
POTOMAC MD       0600   47 44   80/  4/  4 1025.4    0
CAMBRIDGE MD     0548   47 47              1025.1F
LEWISETTA VA     0548   50 47  240/  5/  7 1024.2F
RAPPAHANNOCK LGT 0548          170/  7/  7 1025.6F
YORK RVR RNG VA  0548   46     170/  6/  7 1025.3F
YORKTOWN VA      0548      47   CALM  /  1 1024.5F
DOMINION TERM VA 0548   50     140/  3/  3 1025.0F
KIPTOPEKE VA     0548      46  140/  5/  5   N/A
CAPE HENRY VA    0548          110/  3/  4   N/A
WILLOUBY STN VA  0548           60/  2/  2 1024.7F
S CRANEY ISL VA  0548          170/  2/  3 1024.6F
CAPE HENRY BUOY  0600      44                N/A     4/ 8   2/11
CAPE CHARLES BUO 0551      44                N/A     4/ 9   2/11
64NM E OF VA BCH 0550   49 49  190/  6/  8 1025.8F   5/ 9   5/ 9
DUCK PIER NC     0548   50 46  190/  9/ 10 1025.1F
44100 DUCK FRF   0445      48                N/A     5/ 9   2/11
44056 DUCK FRF   0600      46                N/A     4/ 8   2/11
OREGON INLET NC  0542   49 55  140/  2/  3 1026.2F
HATTERAS NC      0548   60 61  150/  3/  3 1026.0F
DIAMOND SHLS NC  0600   72 73  230/ 14/ 17 1026.4
CAPE LOOKOUT NC  0600          190/  7/  7 1026.5F
$$




USA.gov is the U.S. government's official web portal to all federal, state and local government web resources and services.